Weather History for KPVB - November, 2012

Change the Weather History Date:

Thursday, November 1, 2012

  Actual Average (KDBQ) Record (KDBQ)
Temperature  
Mean Temperature 42 °F 44 °F  
Max Temperature 53 °F 53 °F 78 °F (1933)
Min Temperature 30 °F 35 °F 16 °F (1951)
Degree Days  
Heating Degree Days 22 21  
Month to date heating degree days 21  
Since 1 July heating degree days 670  
Cooling Degree Days 0 0  
Month to date cooling degree days 0  
Year to date cooling degree days 643  
Moisture  
Dew Point 26 °F    
Average Humidity 61    
Maximum Humidity 80    
Minimum Humidity 41    
Precipitation  
Precipitation 0.00 in 0.08 in 2.65 in (1971)
Month to date precipitation 0.08  
Year to date precipitation 32.18  
Snow  
Snow 0.00 in 0.00 in - ()
Month to date snowfall 0.0  
Since 1 July snowfall T  
Since 1 September snowfall T  
Snow Depth -    
Sea Level Pressure  
Sea Level Pressure 29.90 in    
Wind  
Wind Speed 7 mph (WNW)    
Max Wind Speed 16 mph    
Max Gust Speed 21 mph    
Visibility 10 miles    
Events      
T = Trace of Precipitation, MM = Missing Value Source: NWS Daily Summary

Daily Weather History Graph

Daily Weather History Graph

Search for Another Location

Airport or City:

Trip Planner

Search our weather history database for the weather conditions in past years. The results will help you decide how hot, cold, wet, or windy it might be!

Date:

Astronomy

Nov. 01, 2012 Rise Set
Actual Time 7:36 AM CDT 5:53 PM CDT
Civil Twilight 7:06 AM CDT 6:23 PM CDT
Nautical Twilight 6:33 AM CDT 6:56 PM CDT
Astronomical Twilight 6:00 AM CDT 7:29 PM CDT
Moon 7:48 PM CDT (11/1) 10:11 AM CDT (11/1)
Length of Visible Light 11h 16m
Length of Day
10h 17m
Waning Gibbous, 93% of the Moon is Illuminated
Nov 1
Waning Gibbous
Nov 6
Last Quarter
Nov 13
New
Nov 20
First Quarter
Nov 28
Full

Hourly Weather History & Observations

Time (CDT) Temp. Windchill Dew Point Humidity Pressure Visibility Wind Dir Wind Speed Gust Speed Precip Events Conditions
12:15 AM 32.0 °F 25.6 °F 19.4 °F 60% 29.92 in 10.0 mi West 6.9 mph - N/A   Scattered Clouds
12:35 AM 32.0 °F 28.7 °F 19.4 °F 60% 29.92 in 10.0 mi West 3.5 mph - N/A   Scattered Clouds
12:55 AM 32.0 °F 25.6 °F 19.4 °F 60% 29.91 in 10.0 mi West 6.9 mph - N/A   Mostly Cloudy
1:15 AM 32.0 °F 24.2 °F 21.2 °F 64% 29.92 in 10.0 mi West 9.2 mph - N/A   Mostly Cloudy
1:35 AM 32.0 °F 24.8 °F 21.2 °F 64% 29.92 in 10.0 mi West 8.1 mph - N/A   Overcast
1:55 AM 32.0 °F 24.2 °F 23.0 °F 69% 29.92 in 10.0 mi West 9.2 mph - N/A   Overcast
2:15 AM 32.0 °F 25.6 °F 21.2 °F 64% 29.92 in 10.0 mi West 6.9 mph - N/A   Overcast
2:35 AM 33.8 °F 28.6 °F 21.2 °F 60% 29.92 in 10.0 mi West 5.8 mph - N/A   Overcast
2:55 AM 33.8 °F 30.8 °F 21.2 °F 60% 29.91 in 10.0 mi West 3.5 mph - N/A   Overcast
3:15 AM 33.8 °F 29.6 °F 19.4 °F 56% 29.91 in 10.0 mi West 4.6 mph - N/A   Mostly Cloudy
3:35 AM 32.0 °F 26.4 °F 21.2 °F 64% 29.90 in 10.0 mi West 5.8 mph - N/A   Scattered Clouds
3:55 AM 32.0 °F 27.5 °F 21.2 °F 64% 29.90 in 10.0 mi West 4.6 mph - N/A   Scattered Clouds
4:15 AM 32.0 °F 26.4 °F 19.4 °F 60% 29.90 in 10.0 mi West 5.8 mph - N/A   Scattered Clouds
4:35 AM 32.0 °F 25.6 °F 21.2 °F 64% 29.90 in 10.0 mi West 6.9 mph - N/A   Scattered Clouds
4:55 AM 32.0 °F 26.4 °F 21.2 °F 64% 29.89 in 10.0 mi WSW 5.8 mph - N/A   Clear
5:15 AM 32.0 °F 28.7 °F 21.2 °F 64% 29.89 in 10.0 mi West 3.5 mph - N/A   Clear
5:35 AM 32.0 °F 27.5 °F 21.2 °F 64% 29.90 in 10.0 mi West 4.6 mph - N/A   Clear
5:55 AM 32.0 °F - 21.2 °F 64% 29.90 in 10.0 mi Calm Calm - N/A   Clear
6:15 AM 32.0 °F 26.4 °F 21.2 °F 64% 29.90 in 10.0 mi West 5.8 mph - N/A   Clear
6:35 AM 32.0 °F 28.7 °F 21.2 °F 64% 29.90 in 10.0 mi West 3.5 mph - N/A   Clear
6:55 AM 32.0 °F 26.4 °F 23.0 °F 69% 29.90 in 10.0 mi West 5.8 mph - N/A   Clear
7:15 AM 33.8 °F 30.8 °F 23.0 °F 65% 29.90 in 10.0 mi West 3.5 mph - N/A   Clear
7:35 AM 32.0 °F 28.7 °F 23.0 °F 69% 29.90 in 10.0 mi WNW 3.5 mph - N/A   Clear
7:55 AM 33.8 °F 30.8 °F 23.0 °F 65% 29.90 in 10.0 mi West 3.5 mph - N/A   Scattered Clouds
8:15 AM 33.8 °F 30.8 °F 26.6 °F 75% 29.91 in 10.0 mi West 3.5 mph - N/A   Mostly Cloudy
8:35 AM 33.8 °F - 26.6 °F 75% 29.91 in 10.0 mi Calm Calm - N/A   Overcast
8:55 AM 35.6 °F - 26.6 °F 70% 29.92 in 10.0 mi Calm Calm - N/A   Overcast
9:15 AM 35.6 °F 32.8 °F 28.4 °F 75% 29.91 in 10.0 mi West 3.5 mph - N/A   Overcast
9:35 AM 37.4 °F 34.9 °F 28.4 °F 70% 29.92 in 10.0 mi West 3.5 mph - N/A   Overcast
9:55 AM 37.4 °F 34.9 °F 28.4 °F 70% 29.92 in 10.0 mi West 3.5 mph - N/A   Overcast
10:15 AM 41.0 °F 37.1 °F 30.2 °F 65% 29.92 in 10.0 mi West 5.8 mph - N/A   Overcast
10:35 AM 42.8 °F 39.3 °F 30.2 °F 61% 29.92 in 10.0 mi West 5.8 mph - N/A   Overcast
11:15 AM 44.6 °F 42.2 °F 30.2 °F 57% 29.91 in 10.0 mi WNW 4.6 mph - N/A   Overcast
11:35 AM 44.6 °F 41.4 °F 30.2 °F 57% 29.91 in 10.0 mi WNW 5.8 mph - N/A   Overcast
11:55 AM 46.4 °F 45.2 °F 30.2 °F 53% 29.90 in 10.0 mi West 3.5 mph - N/A   Overcast
12:15 PM 48.2 °F - 30.2 °F 50% 29.89 in 10.0 mi WNW 3.5 mph - N/A   Scattered Clouds
12:35 PM 50.0 °F - 30.2 °F 47% 29.88 in 10.0 mi NW 5.8 mph - N/A   Clear
12:55 PM 51.8 °F - 32.0 °F 47% 29.87 in 10.0 mi West 6.9 mph - N/A   Clear
1:15 PM 51.8 °F - 32.0 °F 47% 29.86 in 10.0 mi WNW 6.9 mph - N/A   Scattered Clouds
1:35 PM 51.8 °F - 32.0 °F 47% 29.86 in 10.0 mi NW 11.5 mph 17.3 mph N/A   Scattered Clouds
1:55 PM 51.8 °F - 32.0 °F 47% 29.86 in 10.0 mi West 12.7 mph 18.4 mph N/A   Clear
2:15 PM 53.6 °F - 32.0 °F 44% 29.85 in 10.0 mi NW 15.0 mph 20.7 mph N/A   Clear
2:35 PM 53.6 °F - 32.0 °F 44% 29.85 in 10.0 mi NW 16.1 mph 20.7 mph N/A   Clear
2:55 PM 51.8 °F - 32.0 °F 47% 29.85 in 10.0 mi NW 11.5 mph 19.6 mph N/A   Clear
3:15 PM 53.6 °F - 32.0 °F 44% 29.84 in 10.0 mi WNW 12.7 mph - N/A   Clear
3:35 PM 53.6 °F - 32.0 °F 44% 29.84 in 10.0 mi NW 13.8 mph 17.3 mph N/A   Clear
3:55 PM 53.6 °F - 32.0 °F 44% 29.85 in 10.0 mi NW 16.1 mph - N/A   Clear
4:15 PM 51.8 °F - 30.2 °F 44% 29.85 in 10.0 mi NW 16.1 mph - N/A   Clear
4:35 PM 51.8 °F - 28.4 °F 41% 29.85 in 10.0 mi NNW 15.0 mph - N/A   Clear
4:55 PM 50.0 °F - 28.4 °F 43% 29.85 in 10.0 mi NNW 13.8 mph 17.3 mph N/A   Clear
5:15 PM 50.0 °F - 28.4 °F 43% 29.86 in 10.0 mi NW 11.5 mph - N/A   Clear
5:35 PM 48.2 °F - 30.2 °F 50% 29.87 in 10.0 mi NW 11.5 mph - N/A   Clear
5:55 PM 46.4 °F 42.9 °F 30.2 °F 53% 29.87 in 10.0 mi NNW 6.9 mph - N/A   Clear
6:15 PM 44.6 °F 40.2 °F 28.4 °F 53% 29.88 in 10.0 mi NNW 8.1 mph - N/A   Clear
6:35 PM 42.8 °F 37.5 °F 28.4 °F 57% 29.88 in 10.0 mi NNW 9.2 mph - N/A   Clear
6:55 PM 42.8 °F 37.5 °F 28.4 °F 57% 29.89 in 10.0 mi NNW 9.2 mph - N/A   Clear
7:15 PM 41.0 °F 35.2 °F 28.4 °F 61% 29.91 in 10.0 mi North 9.2 mph - N/A   Scattered Clouds
7:35 PM 41.0 °F 35.8 °F 30.2 °F 65% 29.92 in 10.0 mi North 8.1 mph - N/A   Mostly Cloudy
7:55 PM 37.4 °F 32.1 °F 28.4 °F 70% 29.93 in 10.0 mi North 6.9 mph - N/A   Overcast
8:15 PM 37.4 °F 30.3 °F 28.4 °F 70% 29.94 in 10.0 mi North 10.4 mph - N/A   Mostly Cloudy
8:35 PM 37.4 °F 31.4 °F 28.4 °F 70% 29.94 in 10.0 mi North 8.1 mph - N/A   Scattered Clouds
8:55 PM 35.6 °F 29.9 °F 26.6 °F 70% 29.94 in 10.0 mi North 6.9 mph - N/A   Clear
9:15 PM 33.8 °F 27.0 °F 26.6 °F 75% 29.94 in 10.0 mi North 8.1 mph - N/A   Clear
9:35 PM 33.8 °F 27.7 °F 26.6 °F 75% 29.94 in 10.0 mi North 6.9 mph - N/A   Clear
9:55 PM 33.8 °F 27.0 °F 26.6 °F 75% 29.95 in 10.0 mi North 8.1 mph - N/A   Clear
10:15 PM 33.8 °F 27.7 °F 26.6 °F 75% 29.96 in 10.0 mi North 6.9 mph - N/A   Clear
10:35 PM 32.0 °F 24.2 °F 26.6 °F 80% 29.96 in 10.0 mi North 9.2 mph - N/A   Clear
10:55 PM 32.0 °F 24.2 °F 26.6 °F 80% 29.96 in 10.0 mi NNW 9.2 mph - N/A   Clear
11:15 PM 32.0 °F 24.8 °F 26.6 °F 80% 29.96 in 10.0 mi North 8.1 mph - N/A   Clear
11:35 PM 32.0 °F 26.4 °F 26.6 °F 80% 29.97 in 10.0 mi North 5.8 mph - N/A   Clear
11:55 PM 30.2 °F 24.3 °F 24.8 °F 80% 29.98 in 10.0 mi North 5.8 mph - N/A   Clear